Terminal Aerodrome Forecast
Issued by NWS Boston, MA

Home | Current Version | Previous Version | Text Only | Print | Product List | Glossary On
Versions: 1 2 3 4 5 6 7 8 9 10 11 12 13 14 15 16 17 18 19 20 21 22 23 24 25 26 27 28 29 30 31 32 33 34 35 36 37 38 39 40 41 42 43 44 45 46
000
FTUS41 KBOX 301737
TAFBOS
TAF
KBOS 301737Z 3018/3124 28007KT 3SM -SN BR BKN025 OVC050
     FM302000 32006KT P6SM OVC010
     FM302300 32011G23KT P6SM OVC010
     FM310300 32015G34KT P6SM OVC040
     FM311800 31017G36KT P6SM SCT250=

USA.gov is the U.S. government's official web portal to all federal, state and local government web resources and services.